Theta_e
313 313 312 311 310 308 306 303 296 310 308 294 295 291 297 296 295 297 294 294 292 290 291 289 289 291 295 301 300 296 300 295 295 298 306 306 303 299 299 296 293 296 296 299
313 312 312 311 310 309 303 298 300 310 305 290 291 294 294 295 294 293 292 291 292 292 289 286 291 293 298 299 299 296 299 293 290 294 300 304 300 302 301 298 298 297 295 299
314 313 312 312 311 310 305 300 295 301 302 301 295 292 291 291 297 294 294 292 293 291 289 290 289 291 296 298 299 312 307 292 291 288 294 300 298 301 303 300 295 298 300 304
314 313 313 312 312 311 305 302 296 298 291 294 295 294 292 290 291 295 294 291 292 290 286 287 288 293 295 301 306 302 294 290 294 297 300 301 302 302 302 300 301 297 301 304
313 313 313 312 312 310 302 297 295 298 294 295 294 294 293 291 292 292 291 290 292 292 288 289 288 291 291 294 299 296 298 291 297 296 301 303 302 305 303 303 304 303 303 304
313 313 313 312 311 308 302 305 303 298 294 293 292 292 292 293 294 294 296 294 293 291 293 296 296 296 295 297 295 294 295 295 294 292 301 302 298 303 305 303 305 303 299 306
312 312 313 312 311 308 306 304 301 294 289 292 293 294 295 294 294 292 295 296 292 296 302 300 298 297 297 297 297 298 296 295 294 293 298 291 303 309 311 305 307 306 306 312
312 312 312 312 311 310 307 305 299 294 289 292 293 294 294 294 296 293 295 297 299 302 298 292 289 289 292 295 298 298 297 294 291 293 294 301 305 310 308 305 303 308 307 310
312 312 311 312 312 310 307 304 305 297 290 292 295 293 295 292 291 293 296 300 303 301 295 290 286 286 290 290 293 297 297 296 293 292 293 293 302 309 315 314 301 320 322 322
312 312 311 311 311 309 307 304 305 298 291 295 296 293 293 297 294 291 294 295 296 300 293 286 286 287 295 289 289 289 290 292 290 292 294 301 306 314 318 303 305 319 322 323
311 311 311 311 311 311 307 304 305 299 294 295 299 300 296 297 295 291 293 293 296 296 290 289 291 291 295 294 292 292 291 291 290 293 294 295 309 311 308 311 317 318 317 320
311 311 311 310 311 312 310 302 306 305 297 296 302 302 303 303 302 298 296 296 296 297 292 291 293 290 294 294 291 301 295 298 299 302 301 305 307 307 310 311 311 314 315 318
311 311 310 310 310 311 310 303 304 301 296 296 299 300 306 308 307 306 293 298 299 297 302 297 293 288 294 289 291 295 297 299 301 302 304 303 306 307 310 310 309 313 316 316
310 310 309 310 309 311 310 305 305 303 299 292 297 307 304 309 307 307 303 301 301 300 303 297 294 291 296 293 294 292 293 296 294 297 299 303 305 307 308 309 310 310 316 316
310 310 309 309 310 310 309 309 306 307 300 292 294 303 306 306 306 305 306 301 300 298 298 297 294 296 295 299 297 294 297 295 295 293 302 301 301 306 309 309 308 309 314 315
310 310 310 310 310 309 307 300 308 308 308 296 293 304 304 305 306 306 304 302 301 300 299 297 298 301 298 292 291 297 301 302 302 301 304 304 307 310 311 308 308 310 312 316
309 310 310 310 310 308 303 300 306 310 309 297 294 297 303 304 307 305 304 304 301 300 300 300 299 299 300 294 289 296 301 302 303 305 305 303 308 308 312 311 311 311 312 313
310 310 310 309 308 306 305 307 308 308 303 302 293 295 298 304 298 298 304 302 304 302 300 301 296 298 297 290 295 299 301 302 303 303 305 305 307 310 311 314 314 310 309 311
310 310 310 309 306 304 305 309 308 310 303 294 296 293 290 302 300 301 301 302 297 302 296 296 296 293 289 294 295 298 298 297 299 303 304 304 304 305 308 310 311 310 311 311
310 309 304 301 305 310 308 304 301 300 301 300 298 299 295 299 299 297 298 299 295 292 295 300 294 292 298 300 300 301 298 299 301 298 298 300 301 303 306 308 310 311 311 312
307 304 304 306 309 306 302 297 295 299 294 299 300 299 296 303 296 295 298 294 295 289 293 292 290 290 296 301 300 302 300 300 302 302 303 304 304 304 306 307 309 311 311 311
309 309 310 308 303 299 297 296 300 298 298 300 300 298 299 300 303 299 298 293 293 287 297 291 286 295 299 300 301 301 300 300 302 303 304 306 306 307 309 309 310 311 311 314
314 308 304 300 301 292 292 286 289 291 303 303 301 297 299 300 302 299 297 292 291 297 292 290 293 298 299 301 301 301 303 304 303 303 303 304 305 306 307 308 311 312 312 314
306 304 294 302 300 301 303 302 305 309 309 304 303 299 298 299 296 298 292 297 296 287 285 287 296 299 300 301 302 301 301 303 302 301 302 301 302 302 304 305 306 310 310 313
307 307 297 302 306 307 306 307 306 308 310 306 305 302 301 297 295 297 295 290 286 287 287 294 300 302 301 301 301 300 302 303 301 301 301 301 301 301 301 302 303 305 306 306
306 306 304 308 306 305 306 305 303 307 307 311 310 303 298 292 296 294 290 288 286 291 298 301 302 302 302 302 302 302 304 304 302 301 302 302 301 300 300 301 300 300 301 301
304 305 308 306 304 303 304 304 304 309 305 302 303 298 296 302 294 292 296 292 296 300 300 302 304 303 302 303 302 302 305 304 303 302 302 302 302 301 299 298 299 299 300 301
Wind_Speed
16 16 16 16 16 20 10 5 4 4 1 2 4 7 7 8 11 9 7 5 8 10 17 13 10 10 14 27 20 13 7 4 14 20 17 11 15 11 10 8 10 4 5 6
15 13 13 13 13 12 7 6 6 7 2 3 5 9 10 12 10 6 7 9 10 13 12 11 12 12 19 23 18 8 10 6 6 7 11 11 13 12 10 3 3 12 6 7
13 12 11 11 10 10 5 5 4 4 5 5 6 9 8 9 4 7 7 6 7 11 13 12 14 24 15 28 25 27 11 4 3 7 11 11 8 19 16 12 8 11 11 4
13 12 10 9 9 10 4 4 4 8 6 9 10 11 7 11 10 7 2 4 8 11 13 12 17 22 15 18 22 18 4 9 6 17 19 16 21 19 19 18 16 8 10 8
12 11 9 8 7 9 3 4 4 6 9 12 12 10 7 10 10 6 1 5 8 8 13 13 17 20 10 9 14 15 12 7 13 17 16 17 18 20 25 22 18 14 10 7
11 11 8 6 4 3 3 4 4 4 7 8 8 8 10 19 7 3 2 4 6 11 11 9 14 15 13 17 18 17 12 4 8 8 9 13 12 13 11 20 14 9 10 8
11 10 8 5 5 4 3 3 2 2 5 8 7 5 9 20 14 8 7 6 7 11 6 12 11 14 18 19 25 20 12 3 3 8 9 6 9 9 19 20 15 10 6 6
11 10 8 5 5 5 1 0 2 0 4 10 13 14 16 12 14 17 11 5 11 12 4 5 5 5 5 14 20 20 2 0 5 3 3 10 10 12 12 10 16 6 7 8
11 9 8 5 3 7 2 2 2 2 1 2 14 14 10 4 4 11 9 12 9 8 4 1 4 6 7 6 5 8 6 6 3 6 7 5 6 22 18 12 5 18 13 9
10 9 7 5 3 10 3 2 3 3 2 6 5 5 6 10 8 6 8 14 8 8 6 6 6 5 8 9 8 6 4 4 7 8 5 3 16 20 10 6 1 8 13 15
8 7 5 3 2 11 5 1 5 3 2 8 8 8 11 12 9 8 8 7 2 5 7 3 2 4 6 6 8 9 8 5 4 4 6 8 22 9 10 2 8 11 14 13
7 6 3 2 3 9 9 1 3 2 1 6 13 17 16 17 17 8 7 3 5 3 4 4 4 4 5 8 2 9 6 7 2 4 4 2 7 8 11 11 6 8 13 12
5 4 3 1 2 7 8 2 2 2 2 6 4 6 13 5 16 11 2 1 4 1 4 1 3 2 5 6 7 8 9 10 5 4 8 9 11 11 10 9 9 8 13 11
4 2 2 1 1 6 9 3 4 1 1 3 5 7 9 9 5 6 7 5 7 2 4 2 2 3 4 5 3 7 5 8 12 6 19 9 12 8 9 10 10 11 11 10
3 1 2 1 3 5 5 2 5 4 2 3 6 12 7 9 7 8 9 4 6 3 3 2 2 2 3 3 3 9 4 6 5 5 16 14 8 8 11 9 9 10 7 8
2 2 4 2 3 3 3 1 2 4 2 2 4 3 5 10 8 9 7 6 6 3 4 2 4 3 2 5 5 13 11 12 9 10 19 20 10 7 7 7 10 10 7 8
3 3 3 3 3 3 2 3 2 4 3 2 4 3 3 9 1 3 3 5 4 1 3 3 2 2 5 3 3 10 9 9 11 13 19 18 22 17 9 6 8 9 7 6
4 3 2 4 2 2 2 3 2 2 2 3 3 3 3 8 4 3 4 5 3 7 3 2 5 3 4 4 12 11 11 12 10 15 13 12 17 18 19 14 9 7 8 8
5 4 5 2 2 2 1 6 2 4 2 3 0 2 3 6 5 3 2 3 4 3 5 6 5 5 6 6 13 12 13 10 12 15 17 17 17 19 20 19 16 13 13 9
7 3 2 2 1 10 6 2 2 3 3 3 2 2 1 1 2 3 3 3 3 2 4 3 5 3 5 4 1 4 7 9 10 10 15 17 16 16 18 18 17 15 13 11
3 3 1 3 4 1 2 2 3 2 3 2 2 1 3 3 2 2 3 2 2 2 3 3 2 2 7 10 5 2 4 5 10 8 7 9 11 12 13 15 15 14 13 12
2 1 4 3 3 3 4 4 2 3 2 5 3 1 2 3 4 2 1 3 3 3 1 1 3 4 7 9 8 4 5 3 7 12 12 13 14 13 12 12 15 11 11 12
2 3 3 4 5 3 4 3 3 2 4 5 4 3 2 0 2 2 1 2 3 4 1 2 2 3 5 7 7 9 9 10 8 11 13 13 14 15 13 13 14 15 10 10
3 4 4 6 3 4 2 4 4 3 5 9 7 4 3 2 0 2 3 2 3 3 3 2 2 4 4 6 6 8 8 7 9 10 12 15 16 15 15 15 14 15 14 14
4 4 4 2 2 4 4 8 7 5 1 7 5 3 4 2 2 1 3 2 3 2 1 2 2 4 5 7 7 10 9 8 9 9 10 11 12 13 14 15 15 15 14 16
3 4 4 2 2 2 6 7 7 9 7 2 1 4 5 4 3 4 3 2 1 3 3 3 3 4 5 5 6 8 5 6 8 9 10 11 13 14 13 13 15 14 15 15
4 4 2 5 5 4 5 4 5 4 6 4 3 3 5 4 2 3 3 2 2 3 5 5 5 5 3 5 4 7 2 5 4 5 5 6 7 7 9 12 12 12 13 13
Wind_Direction
312 316 318 324 331 333 327 303 282 45 116 284 221 234 274 22 4 1 349 320 336 344 343 311 304 277 303 320 328 327 356 302 239 250 264 253 221 207 181 203 245 255 186 269
313 315 319 322 333 353 323 299 275 280 197 285 331 342 356 0 336 356 22 4 358 349 332 316 306 302 326 305 307 333 344 3 317 276 268 269 236 216 211 185 157 227 210 248
312 315 318 319 328 338 323 288 301 358 349 305 358 357 344 317 359 48 30 348 330 315 300 287 285 296 301 310 305 302 329 258 249 278 288 314 257 217 204 210 224 238 232 283
321 314 314 315 326 333 304 263 330 358 310 332 343 309 308 305 335 324 276 194 287 317 303 282 282 290 347 324 306 286 296 273 278 278 277 290 284 247 212 213 224 206 227 206
322 316 311 313 324 328 258 313 345 351 305 290 289 303 342 267 265 271 322 287 286 288 274 268 293 304 330 277 327 331 310 281 287 276 297 290 283 290 201 224 225 233 253 228
328 321 312 293 299 334 298 14 338 323 288 291 292 9 309 304 330 323 286 275 318 293 277 306 298 278 281 276 290 294 285 9 344 288 289 287 272 268 262 208 232 197 215 231
320 322 323 281 249 229 339 13 348 333 285 321 350 253 325 345 355 329 311 88 28 274 4 314 275 270 265 263 269 255 269 12 282 291 310 256 251 281 292 197 210 227 214 179
319 323 324 298 230 209 178 99 108 136 282 332 309 354 342 5 342 334 329 154 183 251 216 290 244 217 240 248 252 258 239 184 291 269 273 279 292 15 346 348 205 227 222 185
324 325 326 320 241 180 143 150 109 121 315 247 360 333 334 342 219 280 344 348 39 178 171 193 255 204 186 200 198 212 229 232 187 317 312 243 338 334 316 318 76 360 61 36
326 323 326 325 204 172 157 140 145 117 221 277 329 300 318 305 317 279 345 344 17 278 185 200 214 248 201 195 183 171 217 273 251 269 250 56 330 339 307 61 21 2 32 45
329 332 334 336 207 175 161 129 180 151 202 279 260 317 304 302 313 353 334 345 345 322 19 322 330 322 3 307 181 174 180 211 214 245 268 283 347 12 52 326 6 53 39 40
329 334 331 313 210 181 178 133 144 133 272 279 311 287 266 255 264 278 301 0 323 54 4 352 317 348 324 344 138 337 98 354 343 33 93 25 358 44 26 25 21 38 56 37
326 336 328 338 213 180 169 109 126 129 286 280 241 277 293 299 228 250 292 261 299 11 149 279 47 341 329 356 16 5 338 347 39 19 42 34 24 17 21 26 9 34 74 60
309 307 288 22 126 167 187 180 165 227 305 289 279 275 298 291 279 246 242 258 284 248 100 81 342 350 356 7 93 65 347 351 334 335 9 358 1 8 13 9 9 2 87 80
281 257 258 221 156 189 249 275 176 245 310 300 302 309 336 336 315 296 280 264 277 274 103 141 68 141 256 254 206 44 2 16 3 303 340 324 309 11 3 4 355 346 42 76
260 250 235 217 172 191 247 257 228 195 209 271 296 274 277 326 339 328 271 260 255 255 176 180 98 334 20 30 39 9 6 11 355 317 323 310 298 4 345 341 338 339 1 88
228 234 207 181 177 218 268 6 93 211 177 260 288 290 293 319 262 244 311 282 302 348 40 36 133 86 101 53 66 332 357 351 320 335 335 346 345 324 309 340 326 327 342 55
210 195 196 163 129 130 257 143 112 313 250 240 276 308 318 346 11 347 335 1 24 358 74 315 21 50 50 47 345 339 354 348 330 341 333 326 323 339 354 350 349 349 4 13
148 137 141 156 220 234 90 130 211 245 274 278 319 313 316 330 6 298 354 325 9 79 25 25 57 26 49 344 345 4 7 8 342 334 331 345 345 340 338 340 350 358 354 355
134 195 196 217 88 114 141 170 197 207 204 222 273 292 275 282 323 32 1 7 29 37 41 303 37 61 139 158 357 352 3 358 350 343 348 337 336 332 329 333 338 345 337 329
203 209 196 65 151 257 236 239 219 160 210 204 246 8 326 21 6 59 34 97 1 57 7 38 57 45 2 2 139 185 307 6 4 359 334 328 316 319 325 324 324 322 320 317
228 291 133 152 208 212 236 200 168 220 195 176 148 174 58 345 301 10 89 82 23 48 33 89 34 338 360 3 18 148 290 323 9 3 358 356 353 339 334 332 319 301 304 303
197 219 197 183 173 234 206 239 273 190 162 175 161 138 98 304 291 20 45 65 62 129 254 101 118 7 3 354 6 7 8 70 10 20 10 6 2 359 347 358 346 339 321 329
242 212 240 217 37 7 310 286 257 152 160 155 145 116 150 168 182 340 72 44 49 53 34 350 18 6 14 10 5 354 20 50 46 19 20 19 10 2 360 7 355 1 8 359
245 346 275 354 212 201 266 54 32 35 183 151 147 135 146 79 95 181 76 62 68 105 287 257 7 32 29 360 4 345 10 24 18 16 26 29 19 15 12 14 7 8 10 17
105 269 323 159 272 317 32 32 14 -0 326 137 116 121 157 147 216 156 99 93 115 245 215 203 111 65 39 356 11 333 51 31 27 12 6 12 18 21 14 16 22 18 18 23
168 228 85 17 49 25 19 11 17 358 4 18 259 53 63 109 43 70 48 123 200 238 78 101 85 74 33 344 3 321 57 92 47 9 357 7 20 17 23 21 16 21 21 23